Overview Statistics Trail Chart Weather Telemetry Raw packets
 

This is the latest recevied weather packets stored in our database for station/object WA6OOO. If no packets are shown the sender has not sent any weather packets the latest 10 day(s).

<< 47 48 49 50 51 52 53 >>
Time Temp. Humidity Pressure Rain* Wind** Luminosity Snow
1788360196 17.78° C 70% 1019.7 hPa 0 mm - 35 W/m² -
1788359890 17.78° C 70% 1019.7 hPa 0 mm - 36 W/m² -
1788359585 17.22° C 72% 1019.6 hPa 0 mm - 64 W/m² -
1788359281 17.22° C 75% 1019.4 hPa 0 mm - 55 W/m² -
1788358976 16.67° C 78% 1019.4 hPa 0 mm - 47 W/m² -
1788358676 16.67° C 79% 1019.4 hPa 0 mm - 41 W/m² -
1788358372 16.67° C 79% 1019.2 hPa 0 mm - 36 W/m² -
1788358072 16.11° C 81% 1019.1 hPa 0 mm - 30 W/m² -
1788357767 16.11° C 82% 1019.4 hPa 0 mm - 20 W/m² -
1788357466 16.11° C 83% 1019.3 hPa 0 mm - 21 W/m² -
1788357162 16.11° C 83% 1019.2 hPa 0 mm - 16 W/m² -
1788356862 16.11° C 83% 1019.2 hPa 0 mm - 11 W/m² -
1788356557 15.56° C 85% 1019.1 hPa 0 mm - 8 W/m² -
1788356253 15.56° C 88% 1019.1 hPa 0 mm - 6 W/m² -
1788355952 15.56° C 89% 1018.9 hPa 0 mm - 3 W/m² -
1788355647 15.56° C 89% 1019 hPa 0 mm - 2 W/m² -
1788355343 15.56° C 89% 1019 hPa 0 mm - 1 W/m² -
1788355038 15° C 89% 1019.1 hPa 0 mm - 0 W/m² -
1788354734 15.56° C 88% 1019 hPa 0 mm - 0 W/m² -
1788354428 15.56° C 88% 1019 hPa 0 mm - 0 W/m² -
1788354124 15.56° C 88% 1018.9 hPa 0 mm - 0 W/m² -
1788353819 16.11° C 89% 1019 hPa 0 mm - 0 W/m² -
1788353515 16.11° C 89% 1019.1 hPa 0 mm - 0 W/m² -
1788353228 16.11° C 90% 1018.9 hPa 0 mm - 0 W/m² -
1788352911 15.56° C 90% 1018.8 hPa 0 mm - 0 W/m² -

* Rain latest hour (hover to see other rain measurements)
** Current wind speed in m/s (hover to see current wind gust speed)